N2YJJ-2 Weather Reports


Display with metric or nautical units.
time (UTC)temp
F
wind
direction
speed
MPH
gust
MPH
rain 1hr
in
rain 24hr
in
rain mn
in
humidity
%
barometer
mb
20260504190003 72 230 5.0 15.0 0.00 0.03 0.00 51 1009.0
20260504185003 72 207 5.0 15.0 0.00 0.03 0.00 52 1009.2
20260504184003 71 225 3.0 15.0 0.00 0.03 0.00 53 1009.2
20260504183003 71 203 5.0 13.0 0.00 0.03 0.00 54 1009.3
20260504182003 71 249 6.0 17.0 0.00 0.03 0.00 52 1009.5
20260504180003 70 257 5.0 13.0 0.00 0.03 0.00 57 1009.6
20260504175003 69 214 7.0 13.0 0.00 0.03 0.00 53 1009.8
20260504174003 69 233 7.0 15.0 0.00 0.03 0.00 54 1009.9
20260504173003 69 237 6.0 20.0 0.00 0.03 0.00 54 1010.0
20260504172003 68 227 5.0 15.0 0.00 0.03 0.00 55 1010.1
20260504171003 68 209 7.0 18.0 0.00 0.03 0.00 54 1010.4
20260504141003 63 245 6.0 12.0 0.00 0.03 0.00 57 1010.9
20260504082002 51 245 3.0 12.0 0.00 0.03 0.00 70 1012.2
20260504081002 51 181 3.0 10.0 0.00 0.03 0.00 72 1012.4
20260504050002 55 224 4.0 10.0 0.00 0.03 0.00 59 1013.7
20260504045003 56 224 5.0 12.0 0.00 0.03 0.00 58 1013.7
20260504043002 56 231 2.0 16.0 0.00 0.03 0.00 57 1013.8
20260504041002 56 223 5.0 14.0 0.00 0.03 0.00 57 1013.9
20260504040002 56 247 4.0 13.0 0.00 0.03 0.00 58 1013.8
20260504035004 55 206 5.0 10.0 0.00 0.03 0.03 58 1013.8
20260504034002 55 266 3.0 12.0 0.00 0.03 0.03 59 1013.8
20260504033002 55 264 3.0 10.0 0.00 0.03 0.03 59 1013.8
20260504032002 55 214 3.0 10.0 0.00 0.03 0.03 59 1013.9
20260504031003 55 239 5.0 12.0 0.00 0.03 0.03 61 1013.8
20260504030002 54 236 4.0 9.0 0.00 0.03 0.03 61 1013.8
20260504024002 53 233 3.0 8.0 0.00 0.03 0.03 64 1013.9
20260504023002 52 257 3.0 12.0 0.00 0.03 0.03 66 1013.9
20260504022004 51 251 1.0 3.0 0.00 0.03 0.03 72 1014.0
20260504021002 52 218 2.0 8.0 0.00 0.03 0.03 71 1014.0
20260504020002 51 230 2.0 5.0 0.00 0.03 0.03 69 1014.1
20260504015003 52 221 2.0 12.0 0.00 0.03 0.03 72 1014.1
20260504014002 51 218 2.0 8.0 0.00 0.03 0.03 72 1014.1
20260504013003 51 219 3.0 8.0 0.00 0.03 0.03 73 1014.1
20260504012002 51 237 2.0 6.0 0.01 0.03 0.03 75 1014.1
20260504011002 50 246 3.0 8.0 0.01 0.03 0.03 82 1014.2
20260504010002 49 254 1.0 3.0 0.01 0.03 0.03 89 1014.2
20260504005002 49 238 1.0 7.0 0.01 0.03 0.03 92 1014.1
20260504004002 49 208 1.0 3.0 0.01 0.03 0.03 94 1014.2
20260504003002 49 200 0.0 3.0 0.01 0.03 0.03 93 1014.3
20260504002002 49 200 1.0 2.0 0.00 0.02 0.02 93 1014.3
20260504000002 49 200 0.0 1.0 0.01 0.02 0.02 92 1014.6
20260503235003 50 200 1.0 2.0 0.01 0.02 0.02 92 1014.6
20260503234002 50 221 1.0 2.0 0.01 0.02 0.02 91 1014.9
20260503233003 50 300 1.0 3.0 0.02 0.02 0.02 91 1014.9
20260503231002 51 250 0.0 2.0 0.02 0.02 0.02 89 1015.0
20260503230002 51 250 1.0 3.0 0.01 0.01 0.01 88 1015.0
20260503224003 53 277 1.0 3.0 0.01 0.01 0.01 83 1015.2
20260503223002 54 275 2.0 9.0 0.00 0.00 0.00 78 1015.1
20260503221003 55 263 2.0 7.0 0.00 0.00 0.00 64 1014.6
20260503220003 55 265 2.0 7.0 0.00 0.00 0.00 63 1014.5
20260503214004 54 261 1.0 6.0 0.00 0.00 0.00 63 1014.4
20260503213003 54 200 2.0 10.0 0.00 0.00 0.00 63 1014.3
20260503212004 54 264 2.0 8.0 0.00 0.00 0.00 61 1014.2
20260503210003 55 197 4.0 13.0 0.00 0.00 0.00 61 1014.3
20260503205003 55 254 3.0 12.0 0.00 0.00 0.00 60 1014.3
20260503204003 56 240 7.0 12.0 0.00 0.00 0.00 58 1014.3
20260503202004 56 202 3.0 9.0 0.00 0.00 0.00 57 1014.5
20260503201002 57 231 2.0 9.0 0.00 0.00 0.00 56 1014.7
20260503200003 57 237 3.0 9.0 0.00 0.00 0.00 55 1014.9
20260503195003 57 207 3.0 12.0 0.00 0.00 0.00 54 1015.1
20260503194003 57 250 3.0 12.0 0.00 0.00 0.00 55 1015.4
20260503193003 57 244 5.0 12.0 0.00 0.00 0.00 51 1015.5
20260503191003 58 259 5.0 12.0 0.00 0.00 0.00 50 1015.8